CANX-2

Last updated on Wed Oct 29 2025 00:03:53 GMT+0000 (Coordinated Universal Time)

1 32790U 08021H 25301.37641125 .00006191 00000+0 46236-3 0 9992 2 32790 97.8392 272.4391 0013516 103.0415 257.2320 15.03118003949958
UTC large
Height (km)
Speed (km/s)
/
Latitude / Longitude
Inclination (degrees)
Orbital Period (minutes)
Azimuth
Elevation
Range (km)
Doppler Factor

Next 0 passes for location: London (51.5072 / 0.1276)

Sorry there are no passes over London.